Temp
30 33 34 34 34 34 33 33 29 27 27 29 29 30 30 33 34 33 31 31 31 31 32 33 34 35 37 39 40 43 44 47 52 59 59 59 58 58 57 58 57 57 57 56
28 34 34 31 33 33 33 32 31 30 28 32 32 32 29 29 30 29 29 30 30 31 32 32 33 33 36 37 38 40 40 41 44 49 58 58 58 58 56 54 55 54 54 53
27 33 33 27 28 29 29 31 31 25 29 32 27 27 26 26 27 26 27 28 28 29 30 31 32 33 33 35 38 37 37 38 39 41 44 46 47 45 44 43 43 41 42 42
28 31 20 28 33 34 29 29 31 30 31 29 26 26 28 28 26 25 26 26 27 28 29 31 32 32 33 33 34 35 35 35 36 37 38 39 39 38 37 37 36 36 36 37
28 26 27 31 31 28 29 24 29 28 29 29 29 31 25 27 28 25 25 26 27 28 28 30 31 32 32 30 31 30 31 32 33 35 35 35 34 34 34 34 33 33 34 34
30 24 20 26 30 36 36 18 29 29 26 26 31 19 20 26 27 26 26 26 26 27 28 28 30 32 29 28 27 27 28 30 32 33 33 33 33 32 33 33 32 32 32 33
27 24 26 27 32 39 20 20 29 27 25 23 20 22 25 27 26 27 26 25 26 26 26 27 29 31 27 27 25 27 28 28 28 29 31 32 33 33 32 32 31 31 30 31
25 22 20 28 32 25 27 29 28 26 24 22 22 23 23 24 24 25 24 25 25 24 24 25 28 29 28 27 28 27 27 26 26 27 28 29 30 31 31 31 30 30 30 30
25 22 28 29 27 29 31 28 28 26 25 23 21 22 22 23 25 24 24 23 24 23 23 25 26 27 26 28 29 28 27 25 25 26 27 27 27 27 27 28 28 28 29 29
25 25 27 29 29 29 29 28 27 27 26 25 22 22 22 23 23 23 23 23 24 23 22 22 24 26 27 27 30 29 27 25 25 24 24 26 27 27 27 26 26 26 27 28
24 26 27 27 28 29 28 27 27 27 26 25 24 23 23 22 22 22 22 22 22 21 21 21 23 23 26 27 28 27 28 27 25 25 24 24 25 26 26 28 28 26 27 28
21 26 25 25 27 29 27 27 28 26 25 27 26 24 25 23 23 22 22 22 21 22 21 21 22 22 24 27 28 26 26 27 27 27 25 24 23 23 28 29 29 30 30 30
23 27 26 26 27 28 26 26 27 26 26 24 25 25 23 21 23 23 22 21 19 20 21 21 21 21 22 25 28 27 26 26 26 26 26 25 24 23 21 24 26 28 28 29
29 29 25 25 25 28 27 27 28 26 26 26 24 23 22 20 20 19 19 21 20 19 19 19 19 18 21 22 25 24 24 23 23 23 23 22 20 19 18 17 17 18 24 26
30 31 28 28 30 29 30 28 25 23 23 22 23 22 21 17 15 15 16 19 19 17 16 16 17 16 20 22 23 22 23 21 20 20 20 20 19 17 16 16 16 16 18 20
31 31 30 30 29 29 27 26 23 21 21 21 21 20 19 18 16 16 16 15 14 11 12 9 14 13 17 17 18 18 16 19 17 17 18 16 16 14 14 14 15 15 15 15
30 28 29 27 26 25 24 24 22 20 20 18 17 18 19 17 16 14 13 13 10 7 10 9 6 8 11 12 13 15 13 15 14 17 17 17 15 13 12 12 12 13 13 14
34 31 30 27 24 22 22 22 21 19 15 15 10 6 4 4 4 3 2 3 3 5 4 3 4 8 10 12 14 17 15 15 17 18 15 11 14 16 13 12 12 11 9 9
30 28 27 26 24 22 21 18 15 13 7 4 2 -1 -3 -5 -4 -3 -6 -5 -6 -2 3 2 15 9 11 14 14 14 13 11 13 14 14 10 8 9 9 9 8 3 3 6
24 24 23 21 20 16 12 7 8 6 2 1 -6 -5 -3 -5 -7 -6 -3 1 0 4 5 8 10 11 13 14 10 14 11 8 13 8 6 11 6 1 1 6 10 7 5 3
15 15 13 11 7 4 5 3 4 0 -2 -4 -0 -3 -2 -3 -4 -6 1 7 5 6 11 11 10 9 12 8 11 1 2 -0 1 1 -1 -3 1 6 0 -5 -5 -4 -5 -2
12 11 8 7 7 3 -1 0 2 -2 -2 -3 -7 -8 -6 2 -2 2 0 7 10 5 11 9 9 2 6 3 8 -2 4 3 0 -0 -4 -6 -7 -7 -6 -7 -7 -7 -3 -2
10 9 9 7 9 7 2 2 -1 -0 -1 -2 -1 1 4 9 10 7 6 13 13 7 12 6 2 1 -1 -6 -2 -5 -6 -5 -3 -4 -5 -10 -6 -6 -9 -8 -9 -9 -10 -9
10 10 7 5 7 10 10 8 9 12 5 8 7 3 11 6 6 14 12 8 6 3 -0 -1 0 4 -0 -7 -7 -5 -6 -8 -5 -8 -7 -7 -9 -8 -6 -3 -0 -6 -10 -8
12 11 11 11 14 14 17 18 17 18 18 18 19 20 16 17 11 12 7 7 6 6 4 0 1 2 -4 -7 -8 -7 -5 -8 -8 -8 -6 -10 -8 -10 -11 -7 -2 -2 -3 -9
18 18 18 20 19 20 21 21 17 17 18 13 11 6 9 12 14 13 8 5 7 7 5 8 6 -1 2 5 3 1 -3 -3 -4 -3 0 1 -7 -8 -9 -7 -7 -7 -2 -5
21 19 20 19 20 19 17 16 11 9 5 3 5 3 5 2 4 7 7 7 9 9 10 9 8 10 11 11 10 10 6 3 -3 -1 -4 -7 -10 -9 -11 -7 -9 -9 -8 -5
MSLP
1010.58 1009.76 1009.74 1009.52 1009.16 1008.64 1008.62 1009.19 1010.35 1012.46 1013.25 1014.60 1015.34 1015.51 1015.68 1015.77 1015.49 1015.13 1014.61 1014.50 1013.98 1013.45 1012.99 1012.30 1011.46 1010.66 1009.75 1008.97 1007.96 1007.11 1006.09 1004.78 1004.10 1003.22 1003.13 1003.24 1003.48 1003.93 1004.35 1004.84 1005.23 1005.44 1005.68 1005.93
1008.72 1009.04 1010.15 1010.22 1010.51 1010.83 1010.07 1011.39 1012.81 1013.49 1014.53 1015.76 1016.58 1016.90 1016.87 1017.01 1016.96 1016.61 1016.28 1015.56 1015.31 1014.68 1014.15 1013.37 1012.73 1011.94 1011.03 1010.26 1009.51 1008.64 1007.44 1006.50 1005.68 1004.79 1003.99 1004.08 1004.23 1004.46 1004.85 1005.34 1005.50 1005.75 1006.02 1006.25
1008.65 1009.03 1009.79 1011.24 1012.98 1012.62 1012.64 1013.73 1014.88 1015.10 1016.10 1017.17 1018.00 1018.24 1018.64 1018.61 1018.61 1018.26 1017.95 1017.68 1017.18 1016.39 1015.61 1014.81 1014.08 1013.46 1012.62 1011.74 1010.83 1009.64 1009.03 1008.23 1007.42 1006.79 1006.34 1005.87 1005.40 1005.51 1006.11 1006.58 1006.88 1007.18 1007.53 1007.61
1009.77 1009.69 1011.55 1014.21 1014.59 1014.15 1013.94 1015.99 1016.88 1017.28 1017.66 1018.67 1019.47 1020.25 1020.50 1020.55 1020.28 1020.03 1019.66 1019.17 1018.47 1017.80 1016.91 1015.98 1015.28 1014.53 1013.74 1012.90 1012.13 1011.53 1010.66 1009.75 1009.33 1008.96 1008.35 1007.79 1007.40 1007.01 1007.25 1007.71 1008.18 1008.64 1008.79 1008.76
1009.93 1011.02 1013.38 1014.28 1015.25 1015.77 1015.24 1017.46 1018.55 1019.03 1019.56 1019.96 1020.16 1020.47 1021.59 1021.78 1021.53 1021.34 1020.97 1020.39 1019.77 1019.12 1018.37 1017.53 1016.58 1015.88 1015.20 1014.44 1013.78 1013.11 1012.39 1011.80 1011.22 1010.89 1010.24 1009.52 1009.59 1009.07 1008.40 1008.64 1009.43 1009.94 1010.05 1009.88
1011.01 1012.39 1014.44 1016.34 1016.38 1016.16 1016.07 1018.35 1019.47 1020.07 1020.79 1020.73 1020.30 1021.50 1022.56 1022.64 1022.38 1022.03 1021.67 1021.15 1020.57 1019.98 1019.40 1018.42 1017.75 1017.17 1016.35 1015.74 1015.32 1014.90 1014.69 1014.04 1013.25 1012.43 1011.88 1011.37 1011.38 1011.20 1010.64 1009.97 1010.30 1010.92 1011.16 1011.21
1013.16 1014.53 1016.50 1018.13 1016.86 1015.97 1017.38 1020.76 1020.72 1021.27 1021.87 1022.05 1022.19 1022.96 1023.63 1023.51 1023.13 1022.85 1022.53 1022.26 1021.83 1021.07 1020.46 1019.90 1019.11 1018.25 1017.52 1017.55 1017.05 1017.08 1016.39 1015.63 1014.89 1014.27 1013.28 1013.42 1012.80 1012.14 1011.92 1012.38 1011.53 1011.65 1012.30 1012.47
1015.54 1016.66 1018.59 1018.91 1017.86 1018.71 1020.83 1021.29 1021.79 1022.45 1023.10 1023.46 1023.77 1024.09 1024.19 1024.11 1023.89 1023.67 1023.42 1023.14 1022.52 1022.02 1021.62 1020.97 1020.19 1019.27 1018.85 1018.63 1018.69 1018.34 1017.80 1017.19 1016.53 1016.10 1015.29 1015.18 1014.34 1013.77 1013.35 1013.86 1013.59 1012.98 1013.32 1013.79
1018.48 1019.91 1020.86 1021.23 1021.45 1021.73 1021.82 1022.10 1022.74 1023.24 1023.96 1024.38 1024.66 1024.75 1024.70 1024.51 1024.39 1024.29 1024.12 1023.87 1023.47 1023.34 1022.87 1022.00 1021.50 1020.86 1020.88 1020.39 1019.71 1019.30 1018.89 1018.62 1018.46 1017.50 1017.29 1016.48 1016.24 1015.11 1014.78 1015.22 1015.41 1015.06 1014.51 1014.72
1019.85 1021.50 1021.87 1022.29 1022.70 1022.93 1023.04 1023.25 1023.79 1024.19 1024.45 1024.82 1025.16 1025.28 1025.27 1025.22 1025.23 1025.16 1025.02 1024.79 1024.85 1024.40 1023.83 1023.53 1022.97 1022.64 1022.18 1021.44 1020.76 1020.45 1020.27 1020.16 1020.05 1019.41 1018.86 1018.18 1017.41 1017.60 1017.14 1016.55 1017.41 1017.02 1016.43 1016.06
1021.04 1022.13 1022.73 1023.25 1023.52 1023.77 1024.12 1024.31 1024.58 1024.97 1025.13 1025.24 1025.67 1025.85 1026.00 1026.15 1026.29 1026.36 1026.33 1026.19 1025.77 1025.51 1025.22 1025.10 1024.66 1023.90 1023.28 1022.66 1022.16 1021.47 1021.19 1021.33 1021.28 1020.84 1020.50 1020.05 1019.68 1019.52 1018.88 1018.84 1018.76 1018.39 1018.48 1017.77
1021.41 1021.98 1022.75 1023.76 1024.17 1024.38 1024.48 1024.91 1025.25 1025.35 1025.64 1025.81 1026.23 1026.48 1026.80 1027.03 1027.29 1027.23 1027.21 1027.13 1026.99 1026.81 1026.68 1026.42 1025.64 1025.12 1024.69 1023.83 1023.05 1022.57 1022.34 1022.15 1022.09 1021.93 1021.73 1021.52 1021.35 1021.06 1020.48 1020.29 1019.97 1019.53 1019.57 1019.09
1021.93 1022.48 1023.21 1024.19 1024.58 1024.96 1025.13 1025.49 1025.72 1026.05 1026.35 1026.60 1027.17 1027.44 1027.83 1028.14 1028.28 1028.29 1028.34 1028.31 1028.17 1028.06 1027.77 1027.35 1026.84 1026.34 1025.72 1024.96 1024.29 1023.82 1023.58 1023.31 1023.06 1022.83 1022.56 1022.46 1022.52 1022.34 1022.05 1021.65 1021.46 1021.07 1020.89 1020.96
1022.55 1023.09 1024.12 1024.38 1024.86 1025.26 1025.82 1026.04 1026.22 1026.72 1027.16 1027.53 1028.00 1028.43 1028.77 1029.04 1029.30 1029.38 1029.24 1029.16 1029.13 1028.97 1028.64 1028.28 1027.82 1027.30 1026.72 1025.96 1025.32 1024.96 1024.76 1024.57 1024.42 1024.23 1023.97 1023.80 1023.67 1023.57 1023.48 1023.25 1023.22 1023.34 1023.03 1022.45
1022.82 1022.86 1023.37 1024.21 1024.98 1025.39 1026.01 1026.29 1026.71 1027.63 1028.15 1028.59 1028.95 1029.30 1029.66 1030.04 1030.33 1030.54 1030.43 1030.27 1030.16 1030.04 1029.84 1029.44 1028.98 1028.48 1027.72 1026.99 1026.44 1026.01 1025.53 1025.32 1025.08 1024.90 1024.74 1024.63 1024.61 1024.59 1024.53 1024.38 1024.47 1024.87 1024.39 1024.08
1022.85 1023.33 1023.79 1024.54 1025.08 1025.94 1026.42 1027.01 1027.76 1028.64 1029.15 1029.59 1029.97 1030.37 1030.76 1031.04 1031.26 1031.36 1031.35 1031.26 1031.19 1031.32 1031.11 1030.66 1030.28 1029.72 1028.84 1028.08 1027.49 1027.04 1026.69 1026.33 1026.06 1025.89 1025.83 1025.88 1025.94 1025.90 1025.89 1025.86 1025.91 1025.90 1025.63 1025.38
1022.81 1023.58 1024.41 1025.08 1025.92 1026.72 1027.35 1028.04 1028.81 1029.55 1030.21 1030.80 1031.27 1031.43 1031.66 1031.96 1032.19 1032.33 1032.37 1032.25 1032.24 1032.31 1031.95 1031.57 1031.17 1030.29 1029.54 1028.91 1028.44 1028.18 1027.79 1027.42 1027.14 1026.98 1026.86 1026.76 1026.84 1027.02 1027.04 1027.06 1026.99 1026.98 1027.05 1026.85
1023.11 1024.00 1024.75 1025.53 1026.63 1027.54 1028.47 1029.22 1029.98 1030.71 1031.40 1031.98 1032.47 1032.79 1033.23 1033.43 1033.61 1033.64 1033.33 1033.21 1033.18 1032.90 1032.44 1031.92 1031.37 1030.81 1030.24 1029.72 1029.25 1028.91 1028.57 1028.30 1028.06 1027.97 1027.98 1027.99 1027.81 1027.71 1027.87 1027.95 1028.03 1028.11 1028.18 1028.04
1024.30 1025.20 1026.12 1026.89 1027.62 1028.47 1029.49 1030.55 1031.41 1031.99 1032.57 1032.99 1033.48 1034.08 1034.20 1034.21 1034.12 1033.98 1033.87 1033.80 1033.81 1033.72 1033.06 1032.31 1031.78 1031.29 1030.81 1030.31 1029.96 1029.70 1029.48 1029.26 1029.06 1028.94 1028.76 1028.77 1028.83 1028.77 1028.82 1028.94 1029.15 1029.28 1029.10 1029.06
1026.17 1026.75 1027.43 1028.24 1028.98 1029.73 1030.86 1031.83 1032.29 1032.88 1033.32 1033.69 1034.13 1034.53 1034.88 1034.46 1034.39 1034.24 1034.14 1034.03 1033.83 1033.39 1032.91 1032.52 1032.06 1031.62 1031.21 1030.74 1030.70 1030.44 1030.29 1030.14 1030.00 1030.05 1029.96 1029.76 1029.89 1030.12 1029.81 1029.55 1029.52 1029.61 1029.67 1029.78
1027.55 1028.14 1028.84 1029.61 1030.48 1031.15 1031.66 1032.23 1032.82 1033.66 1033.67 1033.91 1034.24 1034.82 1034.64 1034.28 1034.26 1034.08 1034.07 1033.91 1033.31 1032.94 1032.75 1032.50 1032.20 1031.93 1031.54 1031.58 1031.02 1031.04 1030.98 1030.94 1030.89 1030.99 1031.10 1031.20 1030.92 1030.72 1030.82 1030.80 1030.64 1030.46 1030.34 1030.22
1028.56 1029.24 1029.85 1030.47 1031.27 1032.17 1032.25 1032.59 1032.95 1033.39 1033.73 1033.92 1034.05 1034.11 1034.15 1033.87 1033.67 1033.64 1033.46 1033.20 1032.79 1032.73 1032.66 1032.51 1032.31 1032.48 1032.07 1032.01 1031.45 1031.57 1031.51 1031.50 1031.50 1031.35 1031.41 1031.40 1031.57 1031.83 1031.42 1031.10 1031.11 1030.82 1030.71 1030.62
1029.20 1029.83 1030.44 1031.01 1031.42 1031.87 1032.20 1032.56 1032.90 1033.19 1033.36 1033.38 1033.46 1033.53 1033.43 1033.20 1032.96 1033.09 1032.92 1032.52 1032.51 1032.56 1032.57 1032.63 1032.31 1032.20 1032.26 1032.66 1032.22 1031.98 1031.90 1031.82 1031.71 1031.64 1031.53 1031.44 1031.33 1031.36 1031.29 1031.11 1030.97 1030.80 1030.73 1030.80
1029.56 1030.19 1030.65 1030.91 1031.26 1031.68 1032.19 1032.26 1032.49 1032.68 1032.77 1032.74 1032.88 1032.78 1032.88 1032.76 1032.46 1032.08 1032.05 1032.11 1032.21 1032.32 1032.47 1032.54 1032.24 1031.77 1031.91 1032.80 1032.30 1031.98 1031.79 1031.71 1031.65 1031.54 1031.52 1031.46 1031.36 1031.25 1031.11 1030.96 1030.77 1030.62 1030.59 1030.72
1029.39 1029.86 1030.38 1030.81 1030.89 1031.15 1031.35 1031.49 1031.89 1032.14 1032.21 1032.23 1031.89 1031.80 1031.93 1031.97 1032.23 1031.88 1031.93 1031.94 1031.94 1031.99 1032.04 1031.96 1031.79 1031.53 1031.96 1032.27 1031.85 1031.66 1031.51 1031.40 1031.34 1031.34 1031.33 1031.32 1031.24 1031.19 1031.10 1030.92 1030.72 1030.36 1030.38 1030.70
1029.04 1029.50 1029.84 1029.94 1030.15 1030.45 1030.61 1030.95 1031.48 1031.58 1031.68 1031.98 1031.98 1031.66 1031.58 1031.59 1031.64 1031.69 1031.70 1031.71 1031.67 1031.63 1031.56 1031.20 1030.98 1031.32 1031.14 1031.06 1030.95 1030.86 1030.95 1030.84 1030.90 1030.83 1030.78 1030.93 1031.01 1030.97 1031.04 1030.89 1030.70 1030.14 1029.71 1029.85
1028.80 1029.12 1029.48 1029.77 1029.99 1030.14 1030.40 1030.92 1031.51 1031.79 1031.76 1031.93 1032.15 1032.04 1031.81 1031.66 1031.56 1031.55 1031.60 1031.63 1031.57 1031.48 1031.23 1030.68 1030.40 1030.17 1029.97 1029.89 1029.92 1029.65 1029.71 1029.85 1029.99 1029.81 1029.94 1030.07 1030.24 1030.10 1030.10 1029.71 1029.67 1029.57 1029.37 1029.30
Wind_Speed
20 21 15 14 13 13 17 7 6 4 10 13 14 16 17 16 17 19 21 19 19 18 17 17 17 17 17 16 16 16 15 14 13 1 4 5 7 5 5 5 4 4 3 2
20 20 11 5 12 9 18 16 11 9 10 13 14 15 17 18 18 19 19 20 19 19 19 18 18 17 16 16 15 14 15 15 15 15 5 3 4 5 6 6 5 5 5 5
14 14 11 12 11 14 22 21 8 8 6 11 14 17 17 16 17 18 18 18 18 18 17 16 17 16 16 16 14 15 15 17 17 16 12 10 9 11 10 10 9 10 10 9
3 2 7 7 9 18 25 18 13 11 9 12 13 13 12 13 14 15 16 16 16 14 15 15 16 16 15 16 16 15 15 17 17 15 13 12 10 11 12 10 11 10 10 9
3 7 11 3 11 10 8 11 12 10 9 8 9 5 12 14 12 12 13 12 11 12 14 14 15 15 15 16 16 17 18 16 16 15 14 13 12 11 11 12 12 11 10 11
2 5 4 5 19 13 7 6 11 10 10 9 7 4 5 11 12 12 12 12 12 13 13 16 15 15 15 17 17 18 17 16 14 14 16 14 12 11 11 12 13 10 13 13
5 5 5 14 17 6 6 1 8 9 9 11 7 6 5 7 10 10 9 13 12 13 14 15 15 15 17 16 18 14 14 16 16 15 15 13 13 12 12 11 12 14 14 13
4 5 3 19 5 7 5 8 8 9 7 8 8 7 6 8 10 12 13 13 14 13 14 15 16 15 17 17 15 14 14 15 16 16 13 11 13 13 13 11 12 13 13 11
6 4 4 7 11 9 7 8 8 9 8 6 6 7 8 10 11 12 12 12 12 12 13 15 16 16 15 13 12 14 15 16 15 15 14 14 14 14 12 12 9 9 9 9
3 4 8 8 9 8 8 8 9 8 8 8 8 8 9 9 10 10 11 12 11 12 14 15 15 15 14 13 12 11 13 13 12 13 14 14 11 11 10 11 9 8 8 7
5 8 8 8 6 8 9 8 9 8 9 10 8 10 8 9 9 9 9 9 10 11 12 13 12 14 14 13 11 11 11 8 10 9 11 11 13 11 11 13 13 8 8 8
2 4 5 5 5 8 8 9 8 9 10 11 9 10 10 9 9 9 10 10 10 12 11 11 12 13 13 13 12 11 10 8 8 6 7 8 7 8 22 24 26 27 25 14
4 7 12 9 6 6 10 10 10 11 10 11 10 10 11 9 10 10 10 11 11 11 11 11 11 12 13 13 11 12 10 10 7 8 8 7 7 7 7 12 21 26 24 24
11 12 8 4 7 10 10 12 14 13 11 11 10 10 10 9 8 9 10 8 9 10 11 10 10 11 11 10 9 9 8 10 6 6 6 6 6 6 6 6 7 8 15 18
5 3 9 11 10 11 10 11 12 10 9 10 8 8 8 8 7 7 6 8 9 9 10 10 11 12 12 11 8 8 7 6 6 6 5 6 6 6 6 7 7 5 6 8
9 12 11 10 12 10 10 11 11 8 8 7 8 8 7 6 5 6 6 7 7 7 8 7 9 9 10 10 9 7 6 9 7 5 5 5 4 5 5 5 6 6 6 6
10 11 12 11 10 9 10 8 8 7 7 6 5 4 5 6 6 5 4 5 5 5 6 6 6 7 8 8 6 5 4 5 7 6 5 4 4 3 3 4 4 5 5 6
9 9 9 13 12 11 10 9 8 7 5 5 5 5 6 5 3 2 3 4 6 7 6 6 4 6 7 8 6 5 4 4 4 4 4 4 4 4 3 3 4 4 3 4
12 13 11 11 10 10 9 8 6 6 4 4 5 3 2 1 0 2 2 5 3 4 5 6 8 6 6 8 6 4 5 5 5 5 4 4 4 4 3 3 3 2 2 3
13 12 12 11 8 9 9 4 6 5 2 4 4 3 3 2 2 2 1 1 4 4 5 3 4 5 6 7 7 4 4 4 5 4 4 4 4 4 3 4 3 2 2 2
8 8 9 9 7 5 6 5 6 5 3 4 5 3 3 4 2 2 3 0 5 3 1 3 3 2 3 4 4 3 3 3 3 3 3 2 2 3 3 3 2 2 2 2
6 7 8 7 7 5 3 5 4 4 3 3 2 1 1 1 2 1 4 4 2 3 1 0 1 2 2 4 3 3 3 3 2 2 2 2 2 1 1 1 1 1 2 2
6 6 6 7 7 6 3 3 4 4 5 5 4 4 3 2 3 3 2 4 3 3 3 2 3 3 4 3 3 1 2 1 2 1 1 0 2 2 2 2 2 1 1 1
6 5 5 3 5 4 4 4 5 6 5 4 5 5 3 0 3 1 2 3 5 3 3 4 5 5 3 1 3 3 3 2 3 2 2 2 1 1 1 3 3 3 2 3
5 5 4 5 5 4 5 4 4 5 6 7 7 6 8 5 4 3 3 4 6 5 4 5 7 6 3 3 3 3 4 3 4 3 3 3 3 3 3 3 3 3 3 3
8 6 5 7 5 4 4 3 3 4 3 0 2 1 2 2 3 3 3 5 5 4 4 4 4 4 4 5 5 5 5 4 3 4 4 4 4 3 3 3 3 3 4 3
5 5 4 2 1 2 3 3 3 2 3 3 2 3 3 3 2 3 3 3 3 3 3 3 3 3 4 5 5 6 5 4 4 3 3 4 3 4 4 4 4 4 3 3
Wind_Direction
240 253 269 295 319 61 66 51 81 49 58 41 30 25 24 19 18 17 19 14 12 9 7 4 3 0 1 358 356 353 355 9 355 148 132 137 147 151 142 152 164 160 162 156
265 224 231 306 63 49 63 57 84 85 61 52 40 29 26 23 20 22 17 15 9 8 5 8 4 1 359 359 359 360 8 8 3 3 35 85 110 102 85 64 51 61 32 72
72 133 141 57 37 78 79 53 35 47 18 66 52 41 28 18 19 18 17 13 7 6 3 6 5 4 3 0 360 14 21 13 12 9 15 28 63 74 69 64 60 57 45 41
88 337 59 125 50 70 77 58 45 42 94 98 92 67 41 34 24 21 15 11 7 2 360 5 8 10 9 11 14 16 22 28 15 13 12 23 36 69 70 63 56 49 43 39
80 64 125 116 12 336 12 56 45 43 36 149 176 99 49 28 31 25 16 12 9 4 5 5 13 13 17 21 20 19 19 24 27 13 24 33 23 34 71 75 62 53 43 40
65 60 71 25 324 317 253 64 35 39 25 8 100 65 23 21 24 28 22 15 7 9 12 16 10 18 25 27 24 23 16 14 17 33 26 32 38 36 45 67 77 64 54 42
18 94 95 352 325 310 65 328 54 60 48 35 68 62 62 27 33 27 26 23 15 19 20 16 11 23 36 28 28 16 19 24 24 21 37 23 32 39 49 42 68 69 59 50
358 63 44 359 12 54 89 91 87 83 73 72 66 69 56 50 42 31 28 22 21 24 23 19 17 22 30 31 24 23 25 29 28 28 27 23 34 33 42 40 45 58 65 56
28 80 72 29 63 49 70 84 87 98 91 81 77 61 48 44 44 36 30 26 21 24 22 23 19 22 23 19 22 31 33 32 25 31 28 34 30 37 39 33 27 44 59 62
134 74 70 79 79 62 59 73 84 84 92 86 78 62 56 50 41 36 28 26 20 25 28 24 15 19 20 14 16 29 44 37 32 33 35 33 41 36 42 44 26 27 38 48
75 113 110 80 58 102 89 80 85 81 85 88 80 67 57 51 46 40 34 25 25 25 25 17 12 15 10 11 13 29 38 39 39 39 37 40 45 41 44 46 47 36 28 35
137 113 96 91 87 93 98 102 98 96 89 77 71 72 68 60 50 42 37 28 27 28 26 15 13 15 6 6 19 26 31 30 29 37 43 43 40 42 44 50 47 47 42 47
126 88 99 107 91 88 94 88 86 83 75 79 72 74 70 63 49 50 47 40 33 29 26 19 20 14 1 0 17 28 29 23 25 31 35 38 36 33 35 32 39 42 45 45
119 118 112 158 117 100 94 91 84 78 82 82 81 75 74 72 60 47 41 39 40 29 24 19 18 14 356 354 11 21 27 25 27 28 40 44 42 41 38 40 37 25 30 45
150 74 112 123 129 120 115 104 91 87 84 78 74 81 81 77 63 45 26 43 37 33 19 12 14 4 355 357 16 24 30 24 20 23 29 41 40 40 40 42 41 29 25 34
122 120 133 133 127 121 113 103 100 100 92 86 84 82 79 72 66 56 43 39 45 26 7 3 12 346 353 1 4 14 18 28 30 27 29 25 28 40 43 41 44 41 38 35
145 119 115 110 114 113 107 105 108 106 97 89 79 71 88 78 63 51 39 37 41 18 4 14 344 340 352 2 6 6 11 17 21 31 27 34 39 36 26 41 48 51 42 41
123 125 128 130 130 123 112 105 106 109 106 108 84 80 77 73 84 22 5 8 22 12 3 335 326 359 3 359 1 8 11 15 27 39 39 33 35 50 44 42 44 59 26 38
109 116 116 115 118 117 117 113 100 105 104 114 100 111 137 161 321 321 339 55 36 18 312 327 3 8 3 358 16 14 24 24 26 24 26 38 48 43 60 69 70 46 45 64
96 100 102 97 86 109 111 106 127 119 150 126 125 90 66 321 282 295 246 199 230 234 269 319 8 11 3 0 9 23 31 31 43 34 26 39 39 26 22 51 56 60 91 118
102 100 102 111 113 107 128 143 135 138 177 138 131 177 224 271 244 176 142 280 277 275 162 46 33 354 350 345 1 33 39 32 36 52 49 37 45 64 66 46 46 61 56 55
120 121 129 129 129 139 173 158 135 139 164 174 197 222 239 354 189 244 220 202 239 250 201 320 9 7 345 345 29 17 27 48 46 47 49 42 55 10 341 52 80 163 84 88
133 136 136 145 156 162 144 158 185 177 195 212 214 217 221 235 193 155 255 237 215 212 245 238 283 336 1 6 358 2 353 60 182 203 254 230 261 190 227 238 227 230 191 185
137 142 153 142 132 120 172 225 214 216 213 244 235 224 230 291 316 265 200 195 229 253 259 264 267 279 307 313 322 303 264 238 238 231 241 252 254 285 243 247 238 235 239 228
144 141 136 155 162 198 223 202 203 236 223 235 248 238 219 201 190 244 214 233 236 234 254 268 259 247 249 260 271 270 253 246 239 219 237 237 252 250 255 232 231 222 230 244
159 174 179 186 195 212 218 173 198 252 198 210 316 317 264 240 226 223 216 234 241 249 254 263 252 242 240 248 251 254 248 252 256 241 212 224 229 240 242 259 249 230 222 225
178 175 178 198 202 152 126 134 137 174 153 163 195 261 259 293 295 269 260 278 271 271 272 281 271 251 247 248 251 256 250 252 239 236 231 231 221 229 228 231 222 224 208 190